Date,TemperatureHighF,TemperatureAvgF,TemperatureLowF,DewpointHighF,DewpointAvgF,DewpointLowF,HumidityHigh,HumidityAvg,HumidityLow,PressureMaxIn,PressureMinIn,WindSpeedMaxMPH,WindSpeedAvgMPH,GustSpeedMaxMPH,PrecipitationSumIn
2013-2-1,74,48,32,55,41,30,94,80,39,30.25,30.12,12,1,12,0.00
2013-2-2,65,48,38,54,44,36,96,86,68,30.29,30.22,12,1,12,0.01
2013-2-3,61,46,36,52,42,34,96,85,68,30.27,30.14,11,1,11,0.00
2013-2-4,69,49,36,55,44,35,96,82,52,30.19,30.06,8,1,8,0.00
2013-2-5,60,48,37,50,43,34,95,84,65,30.17,30.09,10,1,10,0.00
2013-2-6,62,46,33,51,41,31,95,84,64,30.22,30.13,9,1,9,0.01
2013-2-7,57,43,32,50,38,30,94,85,58,30.21,30.03,8,0,8,0.06
2013-2-8,55,44,32,46,39,29,96,85,60,30.04,29.96,14,1,14,0.03
2013-2-9,59,42,27,46,35,25,94,80,53,30.13,30.01,10,1,10,0.01
2013-2-10,65,43,27,45,34,25,99,74,36,30.15,30.02,12,1,12,0.01
2013-2-11,66,44,28,43,32,26,94,68,24,30.28,30.09,15,2,15,0.00
2013-2-12,64,46,31,45,37,28,93,75,43,30.37,30.28,9,1,9,0.00
2013-2-13,67,46,30,51,38,27,93,76,47,30.36,30.23,9,1,9,0.00
2013-2-14,74,50,32,50,40,29,94,72,36,30.26,30.14,20,2,20,0.00
2013-2-15,80,52,32,52,40,30,95,70,25,30.27,30.19,12,1,12,0.00
2013-2-16,77,52,35,53,41,32,93,71,26,30.25,30.05,8,1,9,0.00
2013-2-17,62,47,32,51,41,30,94,81,64,30.09,29.98,10,1,10,0.00
2013-2-18,54,45,37,49,41,34,95,85,67,30.08,30.00,9,1,9,0.00
2013-2-19,50,43,33,48,41,31,95,91,82,30.01,29.78,10,1,10,0.32
2013-2-20,62,44,30,48,37,28,96,78,42,30.09,29.85,12,2,12,0.00
2013-2-21,62,46,34,46,37,31,100,73,37,30.21,30.07,15,2,15,0.00
2013-2-22,68,47,30,50,38,27,93,74,44,30.28,30.18,10,2,10,0.00
2013-2-23,63,50,36,46,41,32,94,74,41,30.27,30.15,16,2,16,0.00
2013-2-24,66,48,33,37,32,27,99,58,25,30.28,30.16,15,3,15,0.00
2013-2-25,68,47,29,51,38,26,92,73,46,30.30,30.17,11,2,11,0.00
2013-2-26,71,54,30,46,33,24,94,54,19,30.23,30.12,16,2,16,0.00
2013-2-27,74,61,29,45,39,8,92,46,24,30.37,30.22,12,1,12,0.00
2013-2-28,74,64,36,56,49,34,93,59,50,30.45,30.35,10,2,10,0.00